San Francisco, CA

7:30 AM PDT on July 25, 2016 (GMT -0700)
San Francisco International | | Change Station

Elev 16 ft 37.62 °N, 122.37 °W | Updated 34 minutes ago

Scattered Clouds
Scattered Clouds
56 °F
Feels Like 56 °F
N
4
Wind Variable Wind from West

Today
High -- | Low -- °F
--% Chance of Precip.
Yesterday
High -- | Low -- °F
Precip. -- in
Pressure 29.95 in
Visibility 10.0 miles
Clouds Few 500 ft
Scattered Clouds 900 ft
Dew Point 51 °F
Humidity 84%
Rainfall 0.00 in
Snow Depth Not available.
6:08 AM 8:23 PM
Waning Gibbous, 65% visible
METAR KSFO 251356Z 28003KT 10SM FEW005 SCT009 13/11 A2995 RMK AO2 SLP140 T01330106
Pressure 29.95 in
Visibility 10.0 miles
Clouds Few 500 ft
Scattered Clouds 900 ft
Dew Point 51 °F
Humidity 84%
Rainfall 0.00 in
Snow Depth Not available.
6:08 AM 8:23 PM
Waning Gibbous, 65% visible
METAR KSFO 251356Z 28003KT 10SM FEW005 SCT009 13/11 A2995 RMK AO2 SLP140 T01330106

10-Day Weather Forecast

Almanac

Astronomy

Jul. 25, 2016 Rise Set
Actual Time
Civil Twilight
Nautical Twilight
Astronomical Twilight
Moon
Length of Visible Light
Length of Day
Tomorrow will be .
, % of the Moon is Illuminated

Today's Extremes

State Highs State Lows

Community

WunderPhotos

Upload Photos

1,927,305 photos uploaded!

WunderBlog® & News

Nearby

Air Quality

  Air Quality AQ Index Pollutant
Not available.

Snow Depth

Station Depth Elevation

Earthquake Activity

City Distance Mag. Time & Date
Minimum magnitude displayed is 2.5.

Coastal Water Temperatures

Place Temperature

Stations

Nearby Weather Stations

Station Location Temp. Windchill Dew Point Humidity Wind Precip. Elev Updated Type
                   

Watches & Warnings

There are currently no watches in effect.